Weather History for Dickinson, ND

Change the Weather History Date:

Saturday, August 16, 2014

  Actual Average Record
Temperature  
Mean Temperature 72 °F 69 °F  
Max Temperature 83 °F 84 °F 100 °F (2003)
Min Temperature 61 °F 54 °F 39 °F (1943)
Degree Days  
Heating Degree Days 0 1  
Month to date heating degree days 2 16  
Since 1 June heating degree days 216 187  
Since 1 July heating degree days 51 50  
Cooling Degree Days 7 5  
Month to date cooling degree days 67 94  
Year to date cooling degree days 204 323  
Since 1 June cooling degree days 174 313  
Growing Degree Days 22 (Base 50)    
Moisture  
Dew Point 62 °F    
Average Humidity 70    
Maximum Humidity 93    
Minimum Humidity 46    
Precipitation  
Precipitation 0.05 in 0.05 in 0.84 in (1981)
Month to date precipitation 4.38 0.81  
Year to date precipitation 17.36 11.56  
Sea Level Pressure  
Sea Level Pressure 29.91 in    
Wind  
Wind Speed 10 mph (NNW)    
Max Wind Speed 21 mph    
Max Gust Speed 27 mph    
Visibility 10 miles    
Events Rain    
T = Trace of Precipitation, MM = Missing Value Source: NWS Daily Summary

Daily Weather History Graph

Daily Weather History Graph

Search for Another Location

Airport:

Trip Planner

Search our weather history database for the weather conditions in past years. The results will help you decide how hot, cold, wet, or windy it might be!

Date:

Astronomy

Aug. 16, 2014 Rise Set
Actual Time 5:50 AM MDT 7:59 PM MDT
Civil Twilight 5:17 AM MDT 8:32 PM MDT
Nautical Twilight 4:35 AM MDT 9:13 PM MDT
Astronomical Twilight 3:49 AM MDT 9:59 PM MDT
Moon 11:16 PM MDT (8/16) 1:06 PM MDT (8/16)
Length of Visible Light 15h 15m
Length of Day
14h 09m
Waning Gibbous, 58% of the Moon is Illuminated
Aug 16
Waning Gibbous
Aug 17
Last Quarter
Aug 25
New
Sep 2
First Quarter
Sep 8
Full

Hourly Weather History & Observations

Time (MDT) Temp. Heat Index Dew Point Humidity Pressure Visibility Wind Dir Wind Speed Gust Speed Precip Events Conditions
12:36 AM 66.9 °F - 62.1 °F 84% 29.90 in 10.0 mi NW 11.5 mph - 0.00 in   Overcast
12:56 AM 66.0 °F - 62.1 °F 87% 29.87 in 10.0 mi NNW 10.4 mph - 0.00 in Rain Light Rain
1:56 AM 64.9 °F - 62.1 °F 90% 29.87 in 10.0 mi NNW 13.8 mph 20.7 mph 0.04 in Rain Light Rain
2:30 AM 64.9 °F - 62.1 °F 90% 29.90 in 10.0 mi NNW 15.0 mph 21.9 mph 0.01 in Rain Light Rain
2:56 AM 66.0 °F - 62.1 °F 87% 29.87 in 10.0 mi North 16.1 mph 24.2 mph 0.01 in   Overcast
3:56 AM 64.9 °F - 61.0 °F 87% 29.88 in 10.0 mi NNW 11.5 mph - 0.00 in Rain Light Rain
4:56 AM 64.0 °F - 62.1 °F 93% 29.88 in 10.0 mi NW 11.5 mph - 0.00 in   Partly Cloudy
5:56 AM 63.0 °F - 61.0 °F 93% 29.90 in 10.0 mi NW 11.5 mph - N/A   Clear
6:56 AM 64.0 °F - 60.1 °F 87% 29.90 in 10.0 mi NW 9.2 mph - N/A   Partly Cloudy
7:56 AM 66.9 °F - 61.0 °F 81% 29.91 in 10.0 mi WNW 10.4 mph - N/A   Clear
8:56 AM 69.1 °F - 62.1 °F 78% 29.92 in 10.0 mi WNW 18.4 mph - N/A   Mostly Cloudy
9:56 AM 73.0 °F - 63.0 °F 71% 29.92 in 10.0 mi NW 10.4 mph - N/A   Mostly Cloudy
10:56 AM 73.9 °F - 62.1 °F 66% 29.94 in 10.0 mi NNW 11.5 mph - N/A   Mostly Cloudy
11:56 AM 77.0 °F - 61.0 °F 58% 29.93 in 10.0 mi NNW 11.5 mph - N/A   Clear
12:56 PM 79.0 °F - 62.1 °F 56% 29.92 in 10.0 mi North 8.1 mph - N/A   Clear
1:56 PM 81.0 °F 81.9 °F 62.1 °F 52% 29.91 in 10.0 mi NNW 9.2 mph - N/A   Partly Cloudy
2:56 PM 81.0 °F 81.7 °F 61.0 °F 50% 29.91 in 10.0 mi NW 9.2 mph - N/A   Scattered Clouds
3:56 PM 82.9 °F 82.8 °F 59.0 °F 44% 29.90 in 10.0 mi North 6.9 mph - N/A   Clear
4:56 PM 78.1 °F - 64.0 °F 62% 29.91 in 10.0 mi NE 9.2 mph - N/A   Partly Cloudy
5:56 PM 77.0 °F - 64.9 °F 66% 29.91 in 10.0 mi ENE 9.2 mph - N/A   Partly Cloudy
6:56 PM 73.0 °F - 64.9 °F 76% 29.92 in 10.0 mi East 8.1 mph - N/A   Clear
7:56 PM 70.0 °F - 64.9 °F 84% 29.94 in 10.0 mi East 4.6 mph - N/A   Clear
8:56 PM 68.0 °F - 64.0 °F 87% 29.94 in 10.0 mi East 8.1 mph - N/A   Clear
9:56 PM 66.0 °F - 63.0 °F 90% 29.95 in 7.0 mi East 5.8 mph - N/A   Clear
10:56 PM 64.0 °F - 62.1 °F 93% 29.94 in 8.0 mi SE 9.2 mph - N/A   Clear
11:56 PM 62.1 °F - 61.0 °F 96% 29.94 in 4.0 mi SSE 5.8 mph - N/A   Clear